TimeEDT,TemperatureF,Dew PointF,Humidity,Sea Level PressureIn,VisibilityMPH,Wind Direction,Wind SpeedMPH,Gust SpeedMPH,PrecipitationIn,Events,Conditions,WindDirDegrees,DateUTC
12:16 AM,71.6,69.8,94,30.04,7.0,West,4.6,-,N/A,,Overcast,260,2013-08-23 04:16:00
12:36 AM,71.6,69.8,94,30.05,5.0,West,3.5,-,N/A,,Overcast,280,2013-08-23 04:36:00
12:56 AM,71.6,69.8,94,30.05,7.0,West,3.5,-,N/A,,Scattered Clouds,280,2013-08-23 04:56:00
1:16 AM,71.6,69.8,94,30.05,5.0,WNW,3.5,-,N/A,,Scattered Clouds,300,2013-08-23 05:16:00
1:36 AM,71.6,69.8,94,30.06,5.0,West,3.5,-,N/A,,Scattered Clouds,280,2013-08-23 05:36:00
1:56 AM,71.6,69.8,94,30.06,5.0,Calm,Calm,-,N/A,,Scattered Clouds,0,2013-08-23 05:56:00
2:16 AM,71.6,69.8,94,30.06,5.0,NW,5.8,-,N/A,,Overcast,320,2013-08-23 06:16:00
2:36 AM,71.6,69.8,94,30.06,5.0,NNW,3.5,-,N/A,,Mostly Cloudy,330,2013-08-23 06:36:00
2:57 AM,71.6,69.8,94,30.05,5.0,Calm,Calm,-,N/A,,Scattered Clouds,0,2013-08-23 06:57:00
3:12 AM,69.8,69.8,100,30.05,5.0,Calm,Calm,-,N/A,,Clear,0,2013-08-23 07:12:00
3:32 AM,69.8,69.8,100,30.05,5.0,Calm,Calm,-,N/A,,Clear,0,2013-08-23 07:32:00
3:52 AM,69.8,69.8,100,30.05,4.0,Calm,Calm,-,N/A,,Clear,0,2013-08-23 07:52:00
4:12 AM,69.8,68.0,94,30.05,4.0,NNW,4.6,-,N/A,,Clear,340,2013-08-23 08:12:00
4:32 AM,69.8,68.0,94,30.05,7.0,NNE,4.6,-,N/A,,Clear,20,2013-08-23 08:32:00
4:52 AM,68.0,64.4,88,30.06,10.0,North,3.5,-,N/A,,Clear,10,2013-08-23 08:52:00
5:12 AM,66.2,64.4,94,30.06,10.0,North,4.6,-,N/A,,Scattered Clouds,10,2013-08-23 09:12:00
5:32 AM,66.2,62.6,88,30.06,10.0,North,3.5,-,N/A,,Scattered Clouds,10,2013-08-23 09:32:00
5:53 AM,64.4,62.6,94,30.07,10.0,North,3.5,-,N/A,,Clear,10,2013-08-23 09:53:00
6:13 AM,64.4,62.6,94,30.07,10.0,North,4.6,-,N/A,,Clear,360,2013-08-23 10:13:00
6:33 AM,64.4,62.6,94,30.08,10.0,North,5.8,-,N/A,,Clear,360,2013-08-23 10:33:00
6:53 AM,64.4,60.8,88,30.09,10.0,North,5.8,-,N/A,,Clear,360,2013-08-23 10:53:00
7:13 AM,62.6,60.8,94,30.09,10.0,North,5.8,-,N/A,,Clear,10,2013-08-23 11:13:00
7:33 AM,64.4,60.8,88,30.10,10.0,North,6.9,-,N/A,,Clear,10,2013-08-23 11:33:00
7:53 AM,64.4,60.8,88,30.10,10.0,North,6.9,-,N/A,,Clear,10,2013-08-23 11:53:00
8:13 AM,66.2,62.6,88,30.11,10.0,North,6.9,-,N/A,,Clear,10,2013-08-23 12:13:00
8:33 AM,66.2,60.8,83,30.12,10.0,North,5.8,-,N/A,,Scattered Clouds,10,2013-08-23 12:33:00
8:53 AM,69.8,62.6,78,30.12,10.0,North,5.8,-,N/A,,Clear,10,2013-08-23 12:53:00
9:14 AM,69.8,62.6,78,30.11,10.0,North,5.8,-,N/A,,Clear,10,2013-08-23 13:14:00
9:34 AM,71.6,62.6,73,30.12,10.0,North,6.9,-,N/A,,Clear,10,2013-08-23 13:34:00
9:54 AM,73.4,62.6,69,30.12,10.0,North,5.8,-,N/A,,Clear,10,2013-08-23 13:54:00
10:14 AM,73.4,60.8,65,30.13,10.0,North,3.5,-,N/A,,Clear,10,2013-08-23 14:14:00
10:34 AM,75.2,60.8,61,30.13,10.0,North,5.8,-,N/A,,Clear,10,2013-08-23 14:34:00
10:54 AM,75.2,62.6,65,30.13,10.0,NNE,4.6,-,N/A,,Clear,30,2013-08-23 14:54:00
11:14 AM,77.0,60.8,57,30.13,10.0,North,4.6,-,N/A,,Clear,10,2013-08-23 15:14:00
11:34 AM,78.8,59.0,51,30.13,10.0,NNE,5.8,-,N/A,,Clear,30,2013-08-23 15:34:00
11:54 AM,78.8,59.0,51,30.13,10.0,North,6.9,-,N/A,,Clear,350,2013-08-23 15:54:00
12:14 PM,80.6,57.2,45,30.13,10.0,NNE,5.8,-,N/A,,Clear,30,2013-08-23 16:14:00
12:35 PM,80.6,55.4,42,30.13,10.0,NNE,6.9,-,N/A,,Clear,30,2013-08-23 16:35:00
12:55 PM,80.6,55.4,42,30.13,10.0,NNW,6.9,-,N/A,,Clear,340,2013-08-23 16:55:00
1:15 PM,80.6,55.4,42,30.13,10.0,NNW,5.8,-,N/A,,Clear,340,2013-08-23 17:15:00
1:35 PM,80.6,53.6,39,30.13,10.0,NNW,6.9,-,N/A,,Clear,340,2013-08-23 17:35:00
1:55 PM,82.4,51.8,35,30.13,10.0,NE,4.6,-,N/A,,Clear,50,2013-08-23 17:55:00
2:15 PM,82.4,55.4,39,30.13,10.0,NNE,6.9,-,N/A,,Clear,30,2013-08-23 18:15:00
2:35 PM,82.4,51.8,35,30.13,10.0,Calm,Calm,-,N/A,,Clear,0,2013-08-23 18:35:00
2:55 PM,82.4,53.6,37,30.13,10.0,North,5.8,-,N/A,,Clear,350,2013-08-23 18:55:00
3:16 PM,82.4,51.8,35,30.12,10.0,Calm,Calm,-,N/A,,Clear,0,2013-08-23 19:16:00
3:36 PM,82.4,53.6,37,30.11,10.0,NW,4.6,-,N/A,,Clear,320,2013-08-23 19:36:00
3:56 PM,82.4,57.2,42,30.12,10.0,Calm,Calm,-,N/A,,Clear,0,2013-08-23 19:56:00
4:16 PM,82.4,60.8,48,30.12,10.0,SE,3.5,-,N/A,,Scattered Clouds,130,2013-08-23 20:16:00
4:36 PM,82.4,60.8,48,30.12,10.0,SSE,4.6,-,N/A,,Scattered Clouds,160,2013-08-23 20:36:00
4:56 PM,80.6,59.0,48,30.11,10.0,SE,4.6,-,N/A,,Clear,140,2013-08-23 20:56:00
5:16 PM,80.6,60.8,51,30.11,10.0,SE,5.8,-,N/A,,Clear,140,2013-08-23 21:16:00
5:36 PM,80.6,60.8,51,30.11,10.0,SSE,6.9,-,N/A,,Clear,150,2013-08-23 21:36:00
5:56 PM,80.6,60.8,51,30.11,10.0,South,5.8,-,N/A,,Clear,170,2013-08-23 21:56:00
6:16 PM,80.6,57.2,45,30.12,10.0,SE,5.8,-,N/A,,Clear,140,2013-08-23 22:16:00
6:31 PM,80.6,60.8,51,30.12,10.0,SSE,6.9,-,N/A,,Clear,150,2013-08-23 22:31:00
6:52 PM,78.8,57.2,47,30.12,10.0,South,4.6,-,N/A,,Clear,170,2013-08-23 22:52:00
7:12 PM,78.8,60.8,54,30.12,10.0,Calm,Calm,-,N/A,,Clear,0,2013-08-23 23:12:00
7:32 PM,77.0,60.8,57,30.12,10.0,South,3.5,-,N/A,,Clear,190,2013-08-23 23:32:00
7:52 PM,75.2,62.6,65,30.12,10.0,Calm,Calm,-,N/A,,Clear,0,2013-08-23 23:52:00
8:12 PM,69.8,62.6,78,30.13,10.0,Calm,Calm,-,N/A,,Clear,0,2013-08-24 00:12:00
8:32 PM,66.2,60.8,83,30.13,10.0,Calm,Calm,-,N/A,,Clear,0,2013-08-24 00:32:00
8:52 PM,68.0,60.8,78,30.14,10.0,East,3.5,-,N/A,,Clear,100,2013-08-24 00:52:00
9:12 PM,66.2,60.8,83,30.15,10.0,Calm,Calm,-,N/A,,Clear,0,2013-08-24 01:12:00
9:32 PM,66.2,62.6,88,30.16,10.0,Calm,Calm,-,N/A,,Clear,0,2013-08-24 01:32:00
9:53 PM,64.4,60.8,88,30.17,10.0,ENE,5.8,-,N/A,,Clear,70,2013-08-24 01:53:00
10:13 PM,69.8,60.8,73,30.18,10.0,ENE,5.8,-,N/A,,Clear,60,2013-08-24 02:13:00
10:33 PM,68.0,60.8,78,30.18,10.0,ENE,3.5,-,N/A,,Clear,60,2013-08-24 02:33:00
10:53 PM,68.0,60.8,78,30.19,10.0,NE,3.5,-,N/A,,Clear,50,2013-08-24 02:53:00
11:13 PM,68.0,60.8,78,30.19,10.0,ENE,5.8,-,N/A,,Clear,60,2013-08-24 03:13:00
11:33 PM,66.2,60.8,83,30.19,10.0,NE,4.6,-,N/A,,Clear,50,2013-08-24 03:33:00
11:53 PM,68.0,60.8,78,30.20,10.0,ENE,4.6,-,N/A,,Clear,60,2013-08-24 03:53:00